TimeCST,TemperatureF,Dew PointF,Humidity,Sea Level PressureIn,VisibilityMPH,Wind Direction,Wind SpeedMPH,Gust SpeedMPH,PrecipitationIn,Events,Conditions,WindDirDegrees,DateUTC
12:15 AM,42.8,37.4,81,30.13,4.0,SSE,5.8,-,N/A,Rain,Light Rain,160,2012-11-05 06:15:00
12:35 AM,42.8,37.4,81,30.13,4.0,SSE,8.1,-,N/A,Rain,Light Rain,150,2012-11-05 06:35:00
12:55 AM,42.8,37.4,81,30.13,4.0,SE,5.8,-,0.01,Rain,Rain,140,2012-11-05 06:55:00
1:15 AM,42.8,37.4,81,30.13,3.0,SE,5.8,-,N/A,Rain,Light Rain,130,2012-11-05 07:15:00
1:35 AM,42.8,37.4,81,30.13,4.0,SE,6.9,-,N/A,,Overcast,130,2012-11-05 07:35:00
1:55 AM,42.8,37.4,81,30.13,4.0,ESE,3.5,-,N/A,,Overcast,110,2012-11-05 07:55:00
2:15 AM,42.8,37.4,81,30.14,4.0,ESE,4.6,-,N/A,,Light Drizzle,120,2012-11-05 08:15:00
2:35 AM,42.8,37.4,81,30.14,4.0,ESE,4.6,-,0.01,Rain,Light Rain,120,2012-11-05 08:35:00
3:15 AM,42.8,37.4,81,30.13,4.0,ESE,3.5,-,0.01,Rain,Light Rain,120,2012-11-05 09:15:00
3:35 AM,41.0,37.4,87,30.13,3.0,SE,3.5,-,0.01,Rain,Light Rain,130,2012-11-05 09:35:00
3:55 AM,41.0,37.4,87,30.13,4.0,Calm,Calm,-,0.01,,Overcast,0,2012-11-05 09:55:00
4:15 AM,41.0,37.4,87,30.13,4.0,East,3.5,-,N/A,,Overcast,80,2012-11-05 10:15:00
4:35 AM,41.0,37.4,87,30.14,3.0,Calm,Calm,-,N/A,,Overcast,0,2012-11-05 10:35:00
4:55 AM,41.0,37.4,87,30.14,3.0,NE,3.5,-,N/A,,Overcast,40,2012-11-05 10:55:00
5:15 AM,41.0,37.4,87,30.14,3.0,ENE,4.6,-,N/A,,Overcast,60,2012-11-05 11:15:00
5:35 AM,41.0,37.4,87,30.14,4.0,ENE,4.6,-,N/A,,Overcast,60,2012-11-05 11:35:00
5:55 AM,41.0,37.4,87,30.14,5.0,East,5.8,-,N/A,,Overcast,90,2012-11-05 11:55:00
6:15 AM,41.0,37.4,87,30.14,5.0,East,4.6,-,N/A,,Overcast,90,2012-11-05 12:15:00
6:35 AM,41.0,37.4,87,30.14,7.0,East,4.6,-,N/A,,Overcast,100,2012-11-05 12:35:00
6:55 AM,41.0,35.6,81,30.15,7.0,East,3.5,-,N/A,,Overcast,90,2012-11-05 12:55:00
7:15 AM,41.0,35.6,81,30.15,7.0,East,4.6,-,N/A,,Overcast,100,2012-11-05 13:15:00
7:35 AM,41.0,35.6,81,30.16,7.0,ESE,5.8,-,N/A,,Overcast,110,2012-11-05 13:35:00